Regional Weather Roundup
Issued by NWS

Home | Current Version | Previous Version | Text Only | Print | Product List | Glossary Off
Versions: 1 2 3 4 5 6 7 8 9 10 11 12 13 14 15 16 17 18 19 20 21 22 23 24 25 26 27 28 29 30 31 32 33 34 35 36 37 38 39 40 41 42 43 44 45 46 47 48 49 50

000
ASUS45 KABQ 301101
RWRNM
WEATHER ROUNDUP FOR NEW MEXICO
NATIONAL WEATHER SERVICE ALBUQUERQUE NM
500 AM MDT THU OCT 30 2014

NOTE: "FAIR" MEANS FEW OR NO CLOUDS BELOW 12,000 FEET AGL WITH NO
       SIGNIFICANT WEATHER OR OBSTRUCTIONS TO VISION.

      THIS PRODUCT IS RELEASED AS TWO VERSIONS.  ONE VERSION NEAR
      THE TOP OF THE HOUR CONTAINING PRELIMINARY DATA FROM ALBUQUERQUE
      AND OTHER STATIONS.  A FINAL VERSION WITH ADDITIONAL DATA IS
      ISSUED ABOUT 10 MINUTES AFTER THE HOUR.

NMZ501-503-504-510>518-301200-
NORTHWEST PLATEAU/NORTHCENTRAL MOUNTAINS

CITY           SKY/WX    TMP DP  RH WIND       PRES   REMARKS
FARMINGTON     CLEAR     34  18  52 E7        30.31S WCI  28
LOS ALAMOS     CLEAR     47  10  22 CALM      30.35S
SANTA FE       CLEAR     40  11  30 N10       30.31R WCI  33
TAOS           PTCLDY    27   7  43 NW6       30.36S WCI  20
ANGEL FIRE     FAIR      18  11  75 CALM      30.41R

$$
NMZ402-403-502-505>509-301200-
WESTCENTRAL MOUNTAINS/SOUTHWEST MOUNTAINS

CITY           SKY/WX    TMP DP  RH WIND       PRES   REMARKS
GALLUP         MOCLDY    29  15  56 E3        30.35S
GRANTS         PTCLDY    27  12  54 NW13      30.37R WCI  16
SILVER CITY    CLEAR     46  34  61 NW8       30.25S

$$
NMZ407-409-411-412-301200-
SOUTHERN DESERTS

CITY           SKY/WX    TMP DP  RH WIND       PRES   REMARKS
LORDSBURG      FAIR      43  37  81 S5        30.19S
DEMING         CLEAR     41  35  79 CALM      30.19S
LAS CRUCES     CLEAR     47  39  73 NW6       30.20S
HOLLOMAN AFB   PTCLDY    43  33  66 CALM      30.17S
T OR C         CLEAR     50  35  56 NW8       30.22S

$$
NMZ519>523-301200-
CENTRAL VALLEYS/CENTRAL HIGHLANDS

CITY           SKY/WX    TMP DP  RH WIND       PRES   REMARKS
ALBUQUERQUE    PTCLDY    49  14  24 N9        30.28S
DOUBLE EAGLE   PTCLDY    47  13  26 NW6       30.30S
MORIARTY ARPT  FAIR      24  10  56 CALM      30.31S
CLINES CORNERS CLEAR     41  10  28 NW15      30.30R
BELEN          NOT AVBL
SOCORRO        FAIR      43  29  57 NW8       30.26R

$$
NMZ524>526-539-540-301200-
SOUTHCENTRAL MOUNTAINS

CITY           SKY/WX    TMP DP  RH WIND       PRES   REMARKS
RUIDOSO        CLEAR     54  27  35 NW10      30.30S

$$
NMZ527>531-301200-
NORTHEAST HIGHLANDS/NORTHEAST PLAINS

CITY           SKY/WX    TMP DP  RH WIND       PRES   REMARKS
LAS VEGAS      CLEAR     41  13  31 N13       30.29R
RATON          PTCLDY    48  15  26 NE18      30.28R
CLAYTON        NOT AVBL

$$
NMZ532>537-301200-
EASTCENTRAL PLAINS

CITY           SKY/WX    TMP DP  RH WIND       PRES   REMARKS
TUCUMCARI      CLEAR     43  33  68 W7        30.14R
CANNON AFB     CLEAR     48  45  90 NW10      30.13S
CLOVIS AIRPORT CLEAR     46  43  87 W10       30.15R

$$
NMZ028-029-538-301200-
SOUTHEAST PLAINS

CITY           SKY/WX    TMP DP  RH WIND       PRES   REMARKS
ROSWELL        CLEAR     46  42  86 N5        30.14R
CARLSBAD       CLEAR     49  45  86 N6        30.11S


$$



USA.gov is the U.S. government's official web portal to all federal, state and local government web resources and services.